TimePST,TemperatureF,Dew PointF,Humidity,Sea Level PressureIn,VisibilityMPH,Wind Direction,Wind SpeedMPH,Gust SpeedMPH,PrecipitationIn,Events,Conditions,WindDirDegrees,DateUTC
12:56 AM,25.0,10.9,55,30.27,10.0,SW,4.6,-,N/A,,Clear,230,2013-01-01 08:56:00
1:56 AM,27.0,12.9,56,30.28,10.0,Calm,Calm,-,N/A,,Clear,0,2013-01-01 09:56:00
2:56 AM,28.0,10.9,49,30.27,10.0,Calm,Calm,-,N/A,,Clear,0,2013-01-01 10:56:00
3:56 AM,27.0,10.9,51,30.25,10.0,SW,3.5,-,N/A,,Clear,230,2013-01-01 11:56:00
4:56 AM,26.1,7.0,44,30.26,10.0,NNE,3.5,-,N/A,,Mostly Cloudy,20,2013-01-01 12:56:00
5:56 AM,26.1,7.0,44,30.27,10.0,Calm,Calm,-,N/A,,Mostly Cloudy,0,2013-01-01 13:56:00
6:56 AM,28.9,10.9,47,30.29,10.0,SSE,4.6,-,N/A,,Overcast,150,2013-01-01 14:56:00
7:56 AM,30.9,10.9,43,30.33,10.0,Calm,Calm,-,N/A,,Overcast,0,2013-01-01 15:56:00
8:56 AM,35.1,10.0,35,30.35,10.0,Calm,Calm,-,N/A,,Overcast,0,2013-01-01 16:56:00
9:56 AM,37.9,10.0,32,30.35,10.0,West,3.5,-,N/A,,Overcast,260,2013-01-01 17:56:00
10:56 AM,43.0,10.9,27,30.33,10.0,Calm,Calm,-,N/A,,Overcast,0,2013-01-01 18:56:00
11:56 AM,46.9,10.9,23,30.29,10.0,Calm,Calm,-,N/A,,Clear,0,2013-01-01 19:56:00
12:56 PM,48.0,10.9,22,30.27,10.0,Calm,Calm,-,N/A,,Clear,0,2013-01-01 20:56:00
1:56 PM,48.9,10.9,22,30.25,10.0,ESE,8.1,-,N/A,,Clear,110,2013-01-01 21:56:00
2:56 PM,50.0,9.0,19,30.24,10.0,East,10.4,-,N/A,,Clear,90,2013-01-01 22:56:00
3:56 PM,46.0,9.0,22,30.25,10.0,East,5.8,-,N/A,,Clear,100,2013-01-01 23:56:00
4:56 PM,43.0,7.0,23,30.25,10.0,ESE,5.8,-,N/A,,Clear,110,2013-01-02 00:56:00
5:56 PM,39.0,6.1,26,30.27,10.0,Calm,Calm,-,N/A,,Clear,0,2013-01-02 01:56:00
6:56 PM,34.0,5.0,30,30.28,10.0,SW,5.8,-,N/A,,Clear,230,2013-01-02 02:56:00
7:56 PM,28.9,3.0,33,30.31,10.0,SSW,5.8,-,N/A,,Clear,200,2013-01-02 03:56:00
8:56 PM,28.9,3.0,33,30.31,10.0,South,9.2,-,N/A,,Clear,180,2013-01-02 04:56:00
9:56 PM,30.0,3.9,33,30.32,10.0,SSW,6.9,-,N/A,,Clear,200,2013-01-02 05:56:00
10:56 PM,28.0,5.0,38,30.31,10.0,SSW,10.4,-,N/A,,Clear,210,2013-01-02 06:56:00
11:56 PM,26.1,3.9,39,30.30,10.0,South,9.2,-,N/A,,Clear,190,2013-01-02 07:56:00